Wetbulb
48.53 50.23 50.18 50.98 51.99 52.37 52.87 53.30 52.96 50.35 52.28 57.29 58.10 60.40 59.23 61.57 63.38 63.58 64.15 63.63 62.87 61.28 60.85 60.62 61.02 61.42 62.32 63.85 64.93 65.70 66.11 66.27 66.65 67.57 67.99 68.68 69.17 69.41
48.26 48.28 47.81 48.36 49.00 48.70 49.36 50.49 51.46 50.42 48.57 53.97 55.71 58.86 60.58 61.54 62.63 62.17 62.76 62.71 62.11 61.30 61.54 60.96 59.85 59.79 60.28 60.99 61.87 63.26 64.08 64.12 63.89 64.64 65.56 65.67 66.54 67.10
46.99 47.04 47.14 47.58 47.41 46.60 46.62 47.06 46.45 47.30 45.33 48.47 53.06 56.27 57.04 58.43 59.71 60.85 62.21 63.99 64.71 61.23 61.68 60.58 58.75 58.45 58.60 59.07 60.05 60.99 62.19 62.21 62.37 62.82 63.03 63.77 64.15 64.78
47.28 46.90 47.49 48.99 46.35 45.86 46.02 45.16 44.71 45.17 44.59 43.78 47.77 49.95 53.75 55.84 57.43 59.00 61.13 63.03 65.49 63.71 60.50 59.38 58.19 57.12 56.92 57.07 57.79 58.44 58.72 59.20 59.76 60.40 61.11 61.59 62.05 63.15
47.80 47.28 47.33 48.06 47.52 46.58 45.83 44.95 45.43 46.09 45.68 45.61 45.69 47.87 50.45 52.02 52.91 55.96 59.75 61.89 63.77 64.72 60.08 58.84 57.71 56.85 56.05 55.92 56.08 56.46 55.76 55.76 56.46 57.39 57.84 58.77 59.37 60.02
47.19 47.27 47.21 47.42 47.09 46.68 46.40 46.13 46.02 44.88 45.22 44.29 44.66 46.03 48.16 50.20 50.60 51.98 53.89 59.84 60.83 64.34 62.38 60.17 57.67 56.06 55.02 55.62 56.32 56.60 54.47 53.76 53.94 54.85 54.50 54.06 54.37 55.77
47.55 47.39 47.21 48.17 49.92 49.32 47.47 47.14 47.03 45.52 44.64 43.63 42.57 42.27 43.07 45.15 45.26 48.43 51.84 54.13 59.40 60.21 61.93 60.26 60.02 59.08 57.79 55.68 58.73 58.27 54.65 53.20 52.86 53.76 52.49 50.50 50.32 51.77
46.93 47.62 47.68 48.93 49.13 49.97 50.32 50.46 49.38 46.02 45.14 43.79 42.85 41.56 42.33 42.50 44.53 45.63 47.62 50.98 54.24 59.86 60.17 59.46 61.03 60.37 60.37 59.94 56.56 54.67 53.04 52.29 52.11 52.68 51.41 49.76 49.41 49.59
47.55 47.86 48.19 49.16 49.28 48.62 48.54 48.85 48.54 48.24 47.91 45.71 43.86 44.04 44.00 44.00 45.23 45.36 47.05 50.51 51.17 57.67 60.32 56.71 60.89 59.78 61.74 60.51 53.40 51.93 52.46 50.48 50.48 50.48 50.48 49.39 48.14 47.06
46.55 46.99 47.31 47.84 48.85 48.50 48.01 47.70 47.30 47.23 47.05 46.94 46.18 45.54 45.67 46.06 46.45 47.09 47.25 49.86 52.85 55.67 58.35 55.77 59.82 59.00 61.45 60.37 52.27 51.01 49.56 48.47 48.47 49.01 49.58 49.01 46.49 45.77
45.45 46.21 46.08 46.05 45.28 43.60 47.28 46.83 47.00 46.95 48.18 46.85 46.01 44.87 44.31 44.60 46.66 48.30 47.94 49.78 52.07 53.87 57.51 55.79 55.98 56.87 55.64 54.91 54.57 50.81 48.45 47.74 48.29 49.01 48.83 47.36 45.39 45.01
42.49 43.97 44.55 44.24 42.79 41.80 43.86 46.44 46.11 46.59 47.22 47.33 47.52 45.69 45.24 46.26 45.36 46.66 48.53 49.08 49.53 53.22 57.67 56.35 56.06 55.42 53.49 52.72 52.54 51.40 50.64 48.25 47.93 47.74 47.35 45.99 46.06 51.01
41.24 43.33 46.47 44.55 43.24 42.23 41.73 44.87 46.41 47.98 47.52 47.75 48.04 47.90 48.36 48.90 49.85 48.21 48.66 49.84 48.93 50.65 55.99 57.63 56.44 55.78 51.42 50.75 51.82 52.16 52.43 49.45 49.21 47.98 45.70 45.52 46.86 50.81
41.60 45.62 49.26 45.41 42.59 41.73 41.50 41.82 41.00 43.10 47.18 47.74 47.35 46.88 47.29 47.99 48.55 49.15 50.43 52.43 53.78 53.24 56.22 58.87 57.03 53.85 50.66 51.47 50.39 51.33 51.64 52.81 52.39 49.88 49.33 45.32 44.45 44.16
45.07 45.55 43.71 43.90 46.04 45.41 43.52 40.28 40.07 44.62 45.38 45.39 45.65 46.54 47.87 49.00 50.23 50.64 51.57 52.76 54.80 56.02 57.51 57.94 57.93 53.46 53.38 51.93 50.26 50.31 49.70 51.13 51.74 50.22 49.50 49.77 48.73 48.73
44.09 47.91 46.19 45.55 45.67 47.88 46.07 46.46 46.43 46.25 45.92 45.34 45.48 46.92 48.46 49.04 49.35 50.97 50.98 52.34 53.98 54.71 58.21 59.14 57.81 56.07 54.78 53.38 53.11 50.16 51.25 49.43 51.06 51.14 50.94 50.06 49.48 50.27
42.71 44.19 43.94 44.92 44.10 45.17 46.04 48.30 51.25 49.75 47.64 47.29 47.27 48.25 49.04 50.14 51.00 53.32 53.90 54.35 53.07 54.24 56.62 57.67 56.44 55.78 54.58 54.90 52.45 52.45 51.65 50.26 51.30 51.10 51.25 49.15 49.48 50.39
40.48 40.37 40.36 40.44 41.70 41.14 42.06 41.80 44.01 46.04 50.03 48.91 46.77 48.84 49.09 51.12 51.79 52.96 54.08 54.10 52.40 53.34 55.32 54.01 53.45 52.73 52.94 53.40 50.76 52.01 51.70 50.92 51.47 52.29 51.97 49.12 46.57 47.20
37.19 37.60 38.13 38.19 40.06 38.57 39.64 39.22 39.28 41.91 45.76 49.91 47.11 47.44 49.39 50.86 50.31 51.78 52.30 54.20 53.13 55.47 55.21 55.36 54.60 54.05 51.68 47.38 49.12 45.05 51.51 51.47 51.85 51.22 51.32 48.96 45.66 42.40
35.16 36.00 36.03 36.96 38.19 36.61 36.15 36.76 37.41 38.75 39.59 44.15 51.82 52.35 52.32 52.07 52.62 52.60 53.43 54.35 54.66 54.79 54.13 55.78 55.88 55.17 52.71 49.59 47.00 45.10 40.71 52.29 51.29 43.46 39.29 39.28 38.62 40.21
33.78 34.63 35.09 35.80 36.22 35.41 34.61 35.22 35.75 35.94 36.71 39.10 41.66 46.66 52.85 53.69 53.90 54.56 55.06 48.32 50.91 54.69 54.52 55.06 53.25 43.89 49.02 49.78 44.54 40.56 41.10 41.99 47.15 45.44 42.20 41.92 40.94 41.34
33.29 33.54 34.38 34.69 35.07 34.38 33.28 33.49 33.68 34.16 34.62 35.69 37.33 39.95 44.87 53.10 55.00 55.30 55.22 54.17 54.71 55.05 52.99 49.28 52.32 53.27 53.09 50.18 42.12 39.18 39.15 40.92 41.49 40.95 41.12 42.45 44.32 42.53
32.85 32.99 34.00 33.55 33.91 33.52 32.73 32.22 32.19 32.28 32.85 33.37 35.00 37.49 41.50 50.01 53.74 55.86 55.57 55.71 55.00 53.18 53.12 52.01 49.82 49.35 47.60 43.82 41.38 41.07 41.03 41.30 40.97 38.90 37.41 40.39 41.64 42.21
MSLP
1013.88 1013.60 1013.38 1012.91 1012.52 1012.18 1011.86 1011.55 1011.11 1009.50 1008.21 1007.71 1007.06 1006.49 1006.12 1005.84 1005.30 1004.86 1004.58 1004.18 1003.93 1003.79 1003.80 1003.99 1004.18 1004.40 1004.53 1004.71 1004.89 1004.92 1005.26 1005.60 1005.77 1006.22 1006.71 1007.08 1007.65 1008.28
1013.46 1013.10 1012.85 1012.44 1012.03 1011.71 1011.47 1011.09 1010.84 1010.18 1008.39 1008.26 1007.65 1006.84 1006.38 1005.66 1005.07 1004.54 1004.37 1003.87 1003.46 1003.27 1003.21 1003.25 1003.48 1003.73 1003.83 1004.02 1004.39 1004.47 1004.76 1005.09 1005.49 1005.80 1006.23 1006.44 1007.24 1007.89
1012.99 1012.75 1012.23 1011.72 1011.38 1011.09 1010.87 1010.71 1010.50 1010.17 1008.82 1007.82 1007.39 1006.97 1006.55 1005.92 1005.11 1004.44 1004.00 1003.62 1002.96 1002.35 1002.15 1002.49 1002.87 1003.07 1003.26 1003.38 1003.70 1004.12 1004.39 1004.65 1005.10 1005.58 1005.89 1006.31 1006.89 1007.39
1012.44 1012.17 1011.63 1011.15 1010.75 1010.41 1010.26 1010.06 1009.74 1009.32 1008.88 1007.81 1007.46 1007.01 1006.37 1005.92 1005.20 1004.57 1004.05 1003.08 1002.71 1002.12 1001.88 1001.50 1002.17 1002.31 1002.76 1002.94 1003.00 1003.42 1003.72 1004.31 1004.91 1005.46 1005.79 1006.06 1006.42 1007.24
1011.98 1011.48 1010.88 1010.48 1010.05 1009.87 1009.57 1009.24 1008.89 1008.49 1008.12 1007.69 1006.96 1006.43 1005.73 1005.16 1004.65 1004.43 1004.11 1002.96 1002.27 1001.45 1001.29 1001.07 1001.53 1001.68 1002.00 1002.61 1002.89 1003.11 1003.20 1003.55 1004.36 1005.24 1005.41 1005.86 1006.38 1006.92
1011.12 1010.62 1010.05 1009.66 1009.24 1008.86 1008.66 1008.43 1008.32 1008.06 1007.73 1007.40 1006.97 1006.56 1006.03 1005.46 1005.12 1004.81 1003.86 1003.06 1002.03 1001.10 1000.70 1000.89 1001.15 1001.53 1001.71 1002.11 1002.36 1002.74 1003.01 1002.91 1003.82 1004.79 1005.24 1005.40 1006.19 1006.82
1009.93 1009.42 1008.95 1008.47 1007.92 1007.63 1007.43 1007.02 1007.00 1006.91 1006.75 1006.47 1006.14 1006.04 1005.74 1005.37 1004.98 1004.77 1003.97 1003.24 1001.98 1001.04 1000.84 1001.00 1001.03 1001.49 1001.78 1002.01 1002.06 1002.34 1002.62 1002.78 1003.45 1004.20 1004.96 1005.40 1006.14 1006.68
1009.14 1008.45 1007.87 1007.25 1006.62 1006.25 1005.95 1005.76 1005.62 1005.77 1005.74 1005.56 1005.36 1005.28 1005.17 1005.10 1004.80 1004.36 1003.86 1003.19 1002.06 1000.27 1000.73 1000.53 1000.72 1001.01 1001.43 1001.65 1001.50 1002.03 1002.32 1002.62 1003.22 1003.99 1004.82 1005.22 1005.88 1006.34
1008.27 1007.41 1006.59 1005.87 1005.32 1004.91 1004.57 1004.45 1004.35 1004.42 1004.37 1004.49 1004.52 1004.47 1004.28 1004.29 1004.21 1003.88 1003.37 1002.89 1001.94 1001.24 1000.90 1000.40 1000.35 1000.48 1000.94 1001.16 1001.29 1001.73 1002.04 1002.53 1002.89 1003.83 1004.75 1005.36 1005.81 1006.15
1007.26 1006.34 1005.64 1004.87 1004.04 1003.45 1003.29 1003.20 1003.11 1003.02 1003.01 1003.15 1003.26 1002.95 1003.32 1003.28 1003.40 1003.24 1003.00 1002.58 1001.94 1001.07 1000.67 1000.34 999.87 1000.32 1000.62 1000.98 1001.11 1001.46 1001.81 1002.35 1002.94 1003.81 1004.52 1005.13 1005.80 1005.94
1006.77 1005.59 1004.92 1004.06 1003.18 1002.73 1002.55 1002.02 1001.79 1001.61 1001.66 1001.55 1001.83 1001.89 1002.12 1002.28 1002.35 1002.59 1002.40 1001.98 1000.73 1000.05 999.44 999.04 999.72 1000.21 1000.84 1001.32 1001.35 1001.43 1001.62 1002.11 1003.04 1003.77 1004.43 1005.12 1005.51 1006.19
1006.07 1004.87 1003.82 1003.12 1002.14 1001.58 1001.75 1001.28 1000.69 1000.28 1000.53 1000.40 1000.49 1000.76 1000.92 1001.11 1001.31 1001.65 1001.63 1001.35 1000.81 999.64 998.41 998.24 999.55 1000.02 1001.27 1001.57 1001.62 1001.74 1002.20 1002.45 1003.22 1003.80 1004.32 1004.82 1005.58 1005.73
1006.13 1004.48 1003.03 1001.95 1001.13 1000.44 1000.10 1000.01 999.41 999.23 999.36 999.47 999.59 999.64 999.74 999.74 999.73 999.97 1000.21 1000.48 1000.33 999.66 998.56 998.30 998.98 999.99 1000.68 1001.38 1001.61 1001.72 1001.98 1002.67 1003.44 1004.07 1004.40 1004.94 1005.12 1005.38
1005.71 1004.24 1002.65 1001.30 1000.30 999.61 999.23 998.71 998.64 998.93 998.87 998.76 998.66 998.58 998.59 998.59 998.57 998.81 999.08 999.20 999.13 998.86 998.39 998.31 998.64 999.17 1000.11 1000.96 1001.40 1001.70 1002.13 1002.55 1002.90 1003.62 1004.30 1004.89 1005.39 1005.92
1005.19 1004.16 1002.72 1001.14 999.67 998.93 998.63 998.35 998.30 998.30 998.05 997.91 997.60 997.40 997.25 997.37 997.59 997.79 998.00 998.15 998.17 998.13 998.27 998.14 998.37 998.65 999.14 999.82 1000.64 1001.36 1002.02 1002.49 1002.90 1002.90 1003.89 1004.76 1005.19 1006.00
1005.09 1003.84 1002.63 1001.38 1000.53 999.49 998.66 997.76 997.58 997.38 997.23 997.06 996.83 996.68 996.76 996.78 996.70 996.77 997.05 997.04 997.12 997.05 997.42 997.79 997.85 998.17 998.89 999.31 999.87 1000.74 1001.25 1001.77 1002.60 1002.61 1003.49 1004.72 1005.42 1005.68
1005.67 1004.22 1003.15 1002.35 1001.54 1000.45 999.46 998.52 997.39 996.70 996.45 996.52 996.44 996.24 996.18 995.94 995.78 995.63 995.51 995.89 996.44 996.77 996.93 997.33 997.94 998.24 998.81 999.21 1000.01 1000.44 1001.01 1001.58 1001.93 1002.50 1003.58 1004.73 1005.49 1005.91
1006.00 1005.15 1004.89 1004.16 1003.15 1002.37 1001.08 999.85 998.53 997.38 995.97 996.09 996.29 995.91 995.65 995.27 995.20 995.11 994.81 995.00 995.43 995.79 996.49 997.23 997.82 998.55 999.27 999.68 999.99 1000.24 1001.09 1001.66 1002.17 1002.89 1003.65 1004.56 1005.75 1006.18
1007.19 1006.95 1006.52 1005.69 1004.69 1003.89 1002.71 1001.54 1000.23 998.80 997.38 995.92 996.00 996.03 995.73 995.43 995.22 995.07 994.95 995.23 995.42 995.83 996.17 996.91 997.46 998.00 998.74 999.61 1000.50 1000.78 1000.90 1001.66 1002.38 1003.25 1003.91 1004.89 1005.86 1006.51
1008.82 1008.33 1007.78 1007.10 1006.06 1005.13 1004.13 1002.78 1001.39 999.95 998.61 997.23 995.69 995.43 995.26 995.05 994.87 994.76 994.64 994.65 995.06 995.65 996.17 996.71 997.25 997.59 998.17 998.96 1000.45 1001.95 1001.55 1001.59 1002.38 1003.58 1004.92 1006.07 1006.70 1006.92
1010.12 1009.49 1008.99 1008.13 1007.31 1006.40 1005.34 1004.15 1002.86 1001.53 1000.32 998.83 997.61 996.40 995.13 994.46 994.13 994.06 994.09 994.36 994.83 995.44 996.07 996.80 997.27 997.29 998.48 999.18 1000.71 1002.56 1003.22 1002.56 1002.89 1003.67 1004.78 1005.77 1006.63 1007.07
1011.11 1010.41 1009.80 1009.06 1008.22 1007.35 1006.33 1005.10 1003.84 1002.36 1001.30 1000.15 998.85 997.59 996.11 994.37 993.45 993.44 993.51 994.15 994.91 995.52 996.11 997.18 997.33 997.62 998.27 999.19 1001.13 1002.37 1003.77 1004.24 1004.23 1004.65 1005.15 1005.51 1005.94 1006.44
1011.95 1011.29 1010.48 1009.83 1009.02 1008.23 1007.24 1006.11 1004.98 1004.02 1002.61 1001.29 999.94 998.43 996.82 995.04 994.20 993.62 993.90 994.32 994.89 995.62 996.38 997.05 997.81 998.44 999.41 1000.74 1001.72 1002.73 1003.73 1004.36 1004.94 1005.58 1006.52 1006.43 1006.15 1006.08
Wind_Speed
5 5 4 4 4 4 4 3 6 11 13 9 8 7 5 5 7 8 10 13 16 17 16 13 11 10 10 11 12 11 13 12 11 11 11 9 10 12
5 6 7 6 5 4 5 7 6 9 12 7 10 8 10 10 10 7 9 16 18 16 14 13 11 11 11 11 11 11 12 12 11 12 11 9 8 9
8 9 11 8 7 7 5 5 8 9 13 10 10 10 11 11 12 13 12 11 11 16 16 13 12 13 12 11 10 10 12 12 11 11 10 9 9 8
10 9 11 9 10 8 7 10 9 8 9 15 11 10 12 9 10 14 11 10 9 12 14 14 14 12 12 12 12 14 13 11 10 9 11 11 10 10
9 9 12 12 12 9 9 10 9 8 9 10 10 10 11 9 12 11 12 11 9 15 15 14 12 10 10 9 10 12 13 14 13 12 12 11 9 10
10 11 12 13 13 13 11 12 11 10 9 9 9 9 7 7 5 8 12 10 10 9 9 8 7 5 5 9 11 12 12 15 15 12 11 11 10 10
12 12 13 17 24 20 11 13 12 11 10 10 10 9 8 8 10 8 9 9 13 4 6 4 4 3 3 6 7 12 12 14 14 13 12 10 9 9
14 14 14 22 21 26 27 28 20 14 14 13 12 12 12 6 9 9 10 9 8 3 5 3 4 5 5 5 9 11 15 14 14 13 12 12 10 9
14 14 14 13 20 17 21 24 24 25 24 15 14 15 12 9 10 10 9 9 10 11 3 5 6 3 3 4 10 12 14 13 14 13 12 11 10 10
14 16 15 16 17 17 16 16 15 15 16 12 15 16 14 12 11 11 11 11 10 11 10 9 4 3 2 2 11 13 14 13 13 14 13 12 11 11
13 15 15 17 21 19 14 17 16 15 14 21 20 18 16 17 14 6 9 8 7 7 6 5 3 3 3 1 1 10 13 13 13 13 14 13 12 12
15 15 20 18 23 22 14 14 15 16 13 13 10 16 19 17 18 14 10 10 7 6 5 4 3 4 2 1 1 4 4 11 13 14 15 17 16 7
10 12 12 22 24 23 21 13 14 13 15 12 10 8 9 10 9 8 11 10 10 9 6 0 3 3 3 2 1 2 6 7 5 7 14 15 13 12
12 11 14 24 23 15 13 16 15 13 10 9 7 9 9 10 10 9 9 10 10 13 8 5 4 5 4 3 2 2 3 5 7 7 8 8 12 10
10 18 20 21 21 9 9 11 9 6 7 8 9 10 10 9 9 8 9 12 14 13 9 10 3 5 4 5 5 4 6 3 5 9 8 7 7 6
17 11 14 18 18 15 8 5 3 5 7 8 8 7 7 7 8 8 8 11 9 7 10 12 7 9 4 2 4 8 5 6 4 8 7 6 5 5
12 9 14 14 16 15 14 15 9 5 5 5 5 5 5 6 6 7 7 9 8 9 6 3 6 7 7 4 4 5 6 5 8 8 9 6 4 5
10 12 13 13 14 15 15 15 13 16 5 4 3 3 4 5 3 3 0 2 5 4 5 6 8 7 4 4 10 8 5 5 7 8 7 6 4 2
13 13 11 13 13 14 14 13 14 13 17 2 4 4 4 5 4 3 1 3 3 6 8 8 8 8 6 3 2 18 7 7 7 7 5 3 4 2
12 11 12 12 12 13 14 14 14 14 14 13 6 4 5 6 5 5 5 6 8 6 7 8 7 7 6 6 5 2 15 8 8 4 4 3 5 9
12 11 12 11 12 13 13 13 14 13 13 13 12 11 7 4 4 4 6 10 9 6 7 6 2 11 9 9 6 3 6 17 10 5 5 5 3 2
11 11 11 12 12 12 13 14 14 15 14 13 12 11 10 8 4 4 6 8 6 7 4 6 7 8 4 6 8 7 6 8 19 25 22 9 4 5
11 12 11 12 12 13 13 14 14 13 14 13 13 12 12 10 8 2 5 7 7 8 10 8 8 8 7 8 10 7 12 7 3 6 9 17 14 13
Wind_Direction
281 273 275 277 283 283 272 257 272 290 276 282 285 286 290 274 264 258 255 253 250 241 232 235 245 230 208 213 218 214 211 203 196 193 201 204 222 232
273 272 281 283 267 277 289 291 282 291 290 299 291 297 299 302 302 303 283 275 268 241 230 224 214 222 217 218 218 216 210 196 203 195 193 189 205 222
266 269 271 262 267 268 262 263 272 276 282 288 289 302 299 299 302 302 298 296 276 229 213 208 209 216 213 199 202 212 211 193 193 196 185 182 190 200
257 257 265 272 264 255 261 265 260 264 278 287 288 279 278 306 311 309 288 275 272 243 231 198 210 209 211 205 202 195 189 194 188 201 199 187 180 203
262 263 276 273 268 264 265 267 272 276 276 276 286 297 294 286 287 294 296 283 273 258 226 211 218 223 208 203 214 203 187 176 190 208 187 184 182 203
268 265 269 265 259 262 260 257 257 258 257 262 265 266 273 289 293 295 288 285 272 256 217 204 206 232 192 197 205 209 200 176 182 198 192 174 186 206
274 267 261 257 260 256 254 256 256 257 258 260 264 267 262 264 269 281 287 296 282 242 246 203 168 175 206 215 218 209 199 181 179 187 185 169 177 194
284 276 265 266 263 257 252 249 246 254 259 265 270 266 262 243 259 261 265 269 291 227 205 242 165 202 209 202 197 198 191 180 172 181 176 170 173 176
282 279 277 270 268 258 249 245 245 244 240 250 257 258 259 244 252 263 264 271 264 289 285 224 187 196 187 202 188 189 190 174 162 163 172 172 162 158
280 278 280 280 276 263 251 246 242 240 239 233 240 252 249 248 237 245 259 272 278 267 264 243 176 169 126 158 182 180 167 161 161 164 165 162 160 147
297 293 285 282 277 275 265 243 240 244 237 231 237 239 237 228 228 238 257 263 262 248 226 170 148 110 66 25 189 182 162 155 161 161 158 150 133 127
306 300 296 282 278 276 270 265 244 243 242 246 236 237 243 245 234 236 242 247 258 294 236 122 132 124 153 42 43 135 145 150 160 157 150 141 145 124
304 304 305 303 293 280 262 251 249 249 248 240 242 236 240 240 236 214 214 217 239 251 308 119 124 135 96 130 106 138 161 141 141 145 143 150 151 141
305 305 314 312 301 295 288 265 244 244 256 248 228 228 230 235 236 231 205 209 221 235 261 279 123 157 133 141 162 112 133 161 162 147 145 115 89 88
322 310 307 329 336 306 310 279 265 249 240 236 236 235 228 237 242 229 220 219 222 223 236 251 206 150 156 150 151 159 145 150 185 137 140 156 145 145
337 330 348 357 356 348 308 274 228 220 221 233 238 243 241 233 226 224 223 223 206 216 226 218 167 156 151 117 148 156 150 153 149 151 131 127 129 144
327 359 10 3 359 353 351 350 328 250 220 226 232 236 226 235 236 244 192 185 186 186 179 135 101 91 78 114 124 158 147 131 151 140 134 131 132 147
13 21 9 1 3 350 349 344 343 344 275 193 228 228 257 264 260 280 234 170 154 149 136 140 128 112 105 73 33 141 117 135 138 144 140 130 109 94
25 15 4 2 357 352 346 350 341 342 340 239 204 215 243 268 278 262 246 197 166 160 161 152 157 155 143 115 27 24 128 136 140 125 111 72 130 122
17 8 0 359 356 352 347 346 344 346 346 347 336 237 228 235 241 241 242 200 171 160 160 163 183 178 162 149 128 49 13 136 144 109 107 70 69 110
6 5 360 357 353 353 348 347 345 346 343 343 343 341 336 290 237 216 191 159 155 155 152 168 153 104 106 110 90 58 27 51 70 120 130 104 105 100
3 359 359 356 354 355 350 348 349 348 349 344 339 333 327 331 257 181 156 148 160 159 118 118 134 119 107 119 118 112 106 76 73 65 45 51 160 166
1 356 357 357 356 357 353 350 350 348 343 342 338 336 331 329 353 118 141 136 135 124 129 110 88 78 88 107 115 107 117 108 71 65 41 27 48 70